Weather History for Limon, CO

Change the Weather History Date:

Tuesday, August 6, 2013

  Actual Average Record
Temperature  
Mean Temperature 72 °F -  
Max Temperature 88 °F - 97 °F (2012)
Min Temperature 55 °F - 46 °F (2005)
Degree Days  
Heating Degree Days 0    
Month to date heating degree days 0  
Cooling Degree Days 7    
Month to date cooling degree days 46  
Growing Degree Days 20 (Base 50)    
Moisture  
Dew Point 50 °F    
Average Humidity 61    
Maximum Humidity 100    
Minimum Humidity 21    
Precipitation  
Precipitation 0.00 in - 1.26 in (2007)
Month to date precipitation 0.45  
Year to date precipitation 9.56  
Sea Level Pressure  
Sea Level Pressure 29.88 in    
Wind  
Wind Speed 6 mph (North)    
Max Wind Speed 23 mph    
Max Gust Speed 29 mph    
Visibility 10 miles    
Events Thunderstorm    
T = Trace of Precipitation, MM = Missing Value Source: NWS Daily Summary

Daily Weather History Graph

Daily Weather History Graph

Search for Another Location

Airport:

Trip Planner

Search our weather history database for the weather conditions in past years. The results will help you decide how hot, cold, wet, or windy it might be!

Date:

Astronomy

Aug. 06, 2013 Rise Set
Actual Time 5:59 AM MDT 8:00 PM MDT
Civil Twilight 5:30 AM MDT 8:30 PM MDT
Nautical Twilight 4:54 AM MDT 9:05 PM MDT
Astronomical Twilight 4:15 AM MDT 9:44 PM MDT
Moon 5:52 AM MDT (8/6) 7:37 PM MDT (8/6)
Length of Visible Light 15h 00m
Length of Day
14h 01m
Waning Crescent, 0% of the Moon is Illuminated
Aug 6
Waning Crescent
Aug 6
New
Aug 14
First Quarter
Aug 20
Full
Aug 28
Last Quarter

Hourly Weather History & Observations

Time (MDT) Temp. Heat Index Dew Point Humidity Pressure Visibility Wind Dir Wind Speed Gust Speed Precip Events Conditions
12:55 AM 60.1 °F - 57.0 °F 90% 29.89 in 10.0 mi Calm Calm - N/A   Clear
1:55 AM 60.1 °F - 57.0 °F 90% 29.86 in 10.0 mi Calm Calm - N/A   Clear
2:55 AM 57.9 °F - 55.9 °F 93% 29.84 in 10.0 mi NNW 3.5 mph - N/A   Clear
3:55 AM 55.9 °F - 55.0 °F 97% 29.83 in 10.0 mi North 6.9 mph - N/A   Clear
4:55 AM 55.0 °F - 54.0 °F 96% 29.83 in 10.0 mi North 4.6 mph - N/A   Clear
5:55 AM 55.0 °F - 53.1 °F 93% 29.83 in 10.0 mi NNE 6.9 mph - N/A   Clear
6:55 AM 60.1 °F - 57.0 °F 90% 29.83 in 10.0 mi North 3.5 mph - N/A   Clear
7:55 AM 70.0 °F - 55.9 °F 61% 29.83 in 10.0 mi Calm Calm - N/A   Clear
8:55 AM 75.0 °F - 52.0 °F 44% 29.84 in 10.0 mi WNW 8.1 mph - N/A   Clear
9:55 AM 80.1 °F - 48.9 °F 34% 29.84 in 10.0 mi NNW 11.5 mph - N/A   Clear
10:55 AM 82.9 °F - 46.0 °F 27% 29.83 in 10.0 mi North 18.4 mph 28.8 mph N/A   Clear
11:55 AM 84.9 °F - 43.0 °F 23% 29.85 in 10.0 mi NNE 18.4 mph 28.8 mph N/A   Clear
12:55 PM 86.0 °F - 45.0 °F 24% 29.85 in 10.0 mi NE 13.8 mph 21.9 mph N/A   Clear
1:55 PM 86.0 °F - 44.1 °F 23% 29.83 in 10.0 mi NNE 9.2 mph 20.7 mph N/A   Clear
2:55 PM 86.0 °F - 41.0 °F 20% 29.81 in 10.0 mi North 10.4 mph - N/A   Clear
3:55 PM 86.0 °F - 41.0 °F 20% 29.81 in 10.0 mi East 4.6 mph - N/A   Clear
4:55 PM 84.9 °F - 41.0 °F 21% 29.83 in 10.0 mi North 12.7 mph - N/A   Clear
5:03 PM 84.2 °F - 41.0 °F 22% 30.05 in 10.0 mi North 10.4 mph - N/A   Clear
5:55 PM 84.0 °F - 43.0 °F 24% 29.83 in 10.0 mi North 5.8 mph - N/A   Clear
6:55 PM 80.1 °F 80.6 °F 57.9 °F 47% 29.84 in 10.0 mi Calm Calm - N/A   Clear
7:55 PM 73.9 °F - 48.0 °F 40% 29.84 in 10.0 mi WNW 15.0 mph 21.9 mph N/A   Partly Cloudy
8:05 PM 73.4 °F - 48.2 °F 41% 30.08 in 10.0 mi WNW 12.7 mph - N/A Thunderstorm Partly Cloudy
8:16 PM 71.6 °F - 48.2 °F 43% 30.08 in 10.0 mi West 10.4 mph 19.6 mph N/A Thunderstorm Clear
8:55 PM 70.0 °F - 48.9 °F 47% 29.88 in 10.0 mi SSW 5.8 mph - N/A Thunderstorm Overcast
9:25 PM 71.6 °F - 46.4 °F 41% 30.14 in 10.0 mi Calm Calm - N/A   Mostly Cloudy
9:55 PM 66.0 °F - 52.0 °F 60% 29.91 in 10.0 mi ESE 4.6 mph - N/A   Scattered Clouds
10:55 PM 66.0 °F - 55.0 °F 68% 29.88 in 10.0 mi NE 6.9 mph - N/A   Mostly Cloudy
11:55 PM 63.0 °F - 57.0 °F 81% 29.90 in 10.0 mi SSE 6.9 mph - N/A   Partly Cloudy